Date String (YYYY-MM-DD hh:mm:ss) UTC,Instrument flags,absolute air pressure of the measurement (hPa),sample flow rate (lpm),inlet stack bypass flow (lpm),air temperature of the measurement (°C),ambient temperature measured by the external sensor (°C),aerosol sample conditioner tube jacket temperature (°C),OPC LED temperature (°C),internal box temperature (°C),relative humidity of the measurement (%),span deviation,mass concentration of particles derived from Lorenz-Mie calculation of OPC scattering (μg/m³),mass concentration of particles derived from Lorenz-Mie calculation of OPC scattering (μg/m³),mass concentration of particles derived from Lorenz-Mie calculation of OPC scattering (μg/m³)
DateTimeUTC,F1_M11,P_M11,Q1_M11,Q2_M11,T1_M11,T2_M11,T3_M11,T4_M11,T5_M11,U1_M11,ZSPAN_M11,X0_M11,X2_M11,X1_M11
2023-07-01 10:00:00,SystemResetWarning,0833.7,5.01,000.00,029.6,028.1,000.0,038.2,031.0,18.0,0000.0,0003.68,0002.71,0002.33
2023-07-01 10:01:00,SystemResetWarning,0833.7,5.01,000.00,029.6,028.1,000.0,038.2,031.0,17.9,0000.0,0003.57,0002.67,0002.32
2023-07-01 10:02:00,SystemResetWarning,0833.7,5.00,000.00,029.6,028.1,000.0,038.2,031.1,17.8,0000.0,0003.51,0002.66,0002.32
2023-07-01 10:03:00,SystemResetWarning,0833.7,5.00,000.00,029.6,028.1,000.0,038.2,031.1,17.7,0000.0,0003.46,0002.64,0002.33
2023-07-01 10:04:00,SystemResetWarning,0833.7,5.00,000.00,029.6,028.1,000.0,038.2,031.1,17.7,0000.0,0003.49,0002.66,0002.32
2023-07-01 10:05:00,SystemResetWarning,0833.7,5.00,000.00,029.6,028.1,000.0,038.2,031.1,17.6,0000.0,0003.48,0002.65,0002.32
2023-07-01 10:06:00,SystemResetWarning,0833.7,5.00,000.00,029.6,028.1,000.0,038.2,031.1,17.6,0000.0,0003.68,0002.68,0002.33
2023-07-01 10:07:00,SystemResetWarning,0833.8,5.01,000.00,029.6,028.1,000.0,038.2,031.1,17.6,0000.0,0004.05,0002.65,0002.33
2023-07-01 10:08:00,SystemResetWarning,0833.7,5.00,000.00,029.6,028.1,000.0,038.2,031.1,17.7,0000.0,0003.92,0002.64,0002.33
2023-07-01 10:09:00,SystemResetWarning,0833.7,5.00,000.00,029.6,028.1,000.0,038.2,031.1,17.8,0000.0,0003.93,0002.64,0002.32
2023-07-01 10:10:00,SystemResetWarning,0833.7,5.00,000.00,029.6,028.1,000.0,038.2,031.1,17.8,0000.0,0003.95,0002.66,0002.32
2023-07-01 10:11:00,SystemResetWarning,0833.7,4.99,000.00,029.6,028.2,000.0,038.2,031.1,17.8,0000.0,0003.93,0002.65,0002.32
2023-07-01 10:12:00,SystemResetWarning,0833.8,4.99,000.00,029.6,028.1,000.0,038.2,031.1,18.0,0000.0,0004.00,0002.68,0002.33
2023-07-01 10:13:00,SystemResetWarning,0833.8,5.01,000.00,029.6,028.2,000.0,038.2,031.1,17.8,0000.0,0004.11,0002.70,0002.34
2023-07-01 10:14:00,SystemResetWarning,0833.8,5.01,000.00,029.6,028.2,000.0,038.2,031.1,17.7,0000.0,0004.18,0002.72,0002.35
2023-07-01 10:15:00,SystemResetWarning,0833.8,5.00,000.00,029.6,028.2,000.0,038.2,031.1,17.6,0000.0,0004.21,0002.71,0002.36
2023-07-01 10:16:00,SystemResetWarning,0833.8,4.98,000.00,029.6,028.2,000.0,038.2,031.1,17.5,0000.0,0004.32,0002.73,0002.36
2023-07-01 10:17:00,SystemResetWarning,0833.8,5.00,000.00,029.6,028.2,000.0,038.2,031.1,17.7,0000.0,0004.19,0002.68,0002.34
2023-07-01 10:18:00,SystemResetWarning,0833.8,5.01,000.00,029.6,028.2,000.0,038.2,031.1,17.8,0000.0,0003.52,0002.64,0002.32
2023-07-01 10:19:00,SystemResetWarning,0833.7,5.01,000.00,029.6,028.2,000.0,038.2,031.1,17.8,0000.0,0003.52,0002.63,0002.32
2023-07-01 10:20:00,SystemResetWarning,0833.8,5.01,000.00,029.6,028.2,000.0,038.2,031.1,17.7,0000.0,0003.49,0002.64,0002.34
2023-07-01 10:21:00,SystemResetWarning,0833.8,4.99,000.00,029.6,028.2,000.0,038.3,031.1,17.6,0000.0,0003.76,0002.61,0002.34
2023-07-01 10:22:00,SystemResetWarning,0833.8,5.00,000.00,029.6,028.2,000.0,038.2,031.1,18.0,0000.0,0003.91,0002.62,0002.36
2023-07-01 10:23:00,SystemResetWarning,0833.8,5.00,000.00,029.6,028.2,000.0,038.2,031.1,17.9,0000.0,0003.83,0002.60,0002.36
2023-07-01 10:24:00,SystemResetWarning,0833.8,4.99,000.00,029.6,028.2,000.0,038.2,031.1,17.8,0000.0,0003.86,0002.63,0002.36
2023-07-01 10:25:00,SystemResetWarning,0833.8,4.99,000.00,029.6,028.2,000.0,038.2,031.1,17.5,0000.0,0003.91,0002.66,0002.35
2023-07-01 10:26:00,SystemResetWarning,0833.9,5.00,000.00,029.6,028.2,000.0,038.2,031.1,17.5,0000.0,0003.86,0002.66,0002.34
2023-07-01 10:27:00,SystemResetWarning,0833.9,5.01,000.00,029.6,028.2,000.0,038.2,031.1,18.4,0000.0,0003.83,0002.69,0002.35
2023-07-01 10:28:00,SystemResetWarning,0833.8,5.00,000.00,029.6,028.1,000.0,038.2,031.1,17.8,0000.0,0003.87,0002.72,0002.36
2023-07-01 10:29:00,SystemResetWarning,0833.9,5.00,000.00,029.6,028.1,000.0,038.2,031.1,18.0,0000.0,0004.09,0002.77,0002.39
2023-07-01 10:30:00,SystemResetWarning,0833.9,4.99,000.00,029.6,028.1,000.0,038.2,031.1,18.1,0000.0,0004.15,0002.79,0002.39
2023-07-01 10:31:00,SystemResetWarning,0833.9,5.00,000.00,029.6,028.1,000.0,038.2,031.1,17.8,0000.0,0004.22,0002.81,0002.40
2023-07-01 10:32:00,SystemResetWarning,0833.9,4.99,000.00,029.6,028.1,000.0,038.2,031.0,18.3,0000.0,0003.99,0002.83,0002.40
2023-07-01 10:33:00,SystemResetWarning,0833.9,5.00,000.00,029.6,028.1,000.0,038.2,031.0,18.2,0000.0,0004.16,0002.83,0002.40
2023-07-01 10:34:00,SystemResetWarning,0833.9,5.00,000.00,029.6,028.1,000.0,038.2,031.0,17.7,0000.0,0004.93,0002.87,0002.41
2023-07-01 10:35:00,SystemResetWarning,0833.9,5.00,000.00,029.6,028.1,000.0,038.2,031.0,17.8,0000.0,0004.83,0002.81,0002.40
2023-07-01 10:36:00,SystemResetWarning,0833.9,5.00,000.00,029.6,028.1,000.0,038.2,031.0,17.8,0000.0,0004.64,0002.74,0002.39
2023-07-01 10:37:00,SystemResetWarning,0833.9,5.00,000.00,029.6,028.1,000.0,038.2,031.0,18.0,0000.0,0004.58,0002.72,0002.39
2023-07-01 10:38:00,SystemResetWarning,0833.9,5.00,000.00,029.6,028.1,000.0,038.2,031.0,18.6,0000.0,0004.48,0002.67,0002.38
2023-07-01 10:39:00,SystemResetWarning,0834.0,5.00,000.00,029.6,028.1,000.0,038.2,031.0,18.4,0000.0,0004.49,0002.66,0002.38
2023-07-01 10:40:00,SystemResetWarning,0833.9,5.00,000.00,029.6,028.1,000.0,038.2,031.0,17.9,0000.0,0004.35,0002.64,0002.38
2023-07-01 10:41:00,SystemResetWarning,0833.9,5.01,000.00,029.6,028.1,000.0,038.2,031.0,17.9,0000.0,0004.35,0002.65,0002.38
2023-07-01 10:42:00,SystemResetWarning,0833.9,5.00,000.00,029.6,028.1,000.0,038.2,031.0,18.3,0000.0,0004.41,0002.66,0002.38
2023-07-01 10:43:00,SystemResetWarning,0834.0,5.00,000.00,029.6,028.1,000.0,038.2,031.0,18.1,0000.0,0004.45,0002.67,0002.40
2023-07-01 10:44:00,SystemResetWarning,0833.9,5.00,000.00,029.6,028.1,000.0,038.2,031.0,18.1,0000.0,0004.38,0002.70,0002.40
2023-07-01 10:45:00,SystemResetWarning,0833.9,5.00,000.00,029.6,028.1,000.0,038.2,031.0,18.1,0000.0,0003.54,0002.69,0002.39
2023-07-01 10:46:00,SystemResetWarning,0833.9,5.00,000.00,029.6,028.1,000.0,038.2,031.0,18.0,0000.0,0003.63,0002.73,0002.41
2023-07-01 10:47:00,SystemResetWarning,0833.9,5.00,000.00,029.6,028.1,000.0,038.2,031.0,17.9,0000.0,0003.86,0002.77,0002.42
2023-07-01 10:48:00,SystemResetWarning,0833.9,4.99,000.00,029.6,028.1,000.0,038.2,031.0,18.0,0000.0,0003.90,0002.78,0002.42
2023-07-01 10:49:00,SystemResetWarning,0833.9,5.00,000.00,029.6,028.0,000.0,038.2,031.0,18.0,0000.0,0004.02,0002.81,0002.43
2023-07-01 10:50:00,SystemResetWarning,0833.9,5.00,000.00,029.6,028.1,000.0,038.2,031.0,18.1,0000.0,0004.11,0002.83,0002.43
2023-07-01 10:51:00,SystemResetWarning,0833.8,5.00,000.00,029.6,028.1,000.0,038.2,031.0,18.1,0000.0,0004.12,0002.84,0002.44
2023-07-01 10:52:00,SystemResetWarning,0834.1,5.00,000.00,029.6,028.1,000.0,038.2,031.0,18.0,0000.0,0004.10,0002.84,0002.44
2023-07-01 10:53:00,SystemResetWarning,0833.9,5.01,000.00,029.6,028.1,000.0,038.2,031.0,18.2,0000.0,0004.10,0002.83,0002.44
2023-07-01 10:54:00,SystemResetWarning,0833.8,5.00,000.00,029.6,028.1,000.0,038.2,031.0,18.4,0000.0,0004.12,0002.82,0002.43
2023-07-01 10:55:00,SystemResetWarning,0833.9,5.01,000.00,029.6,028.1,000.0,038.2,031.0,18.4,0000.0,0003.98,0002.79,0002.44
2023-07-01 10:56:00,SystemResetWarning,0833.9,5.00,000.00,029.6,028.1,000.0,038.2,031.0,18.3,0000.0,0003.87,0002.77,0002.46
2023-07-01 10:57:00,SystemResetWarning,0833.9,5.00,000.00,029.5,028.1,000.0,038.2,031.0,18.4,0000.0,0004.23,0002.77,0002.45
2023-07-01 10:58:00,SystemResetWarning,0833.9,5.01,000.00,029.6,028.1,000.0,038.2,031.0,18.4,0000.0,0004.51,0002.81,0002.47
2023-07-01 10:59:00,SystemResetWarning,0833.9,5.00,000.00,029.6,028.0,000.0,038.2,031.0,18.3,0000.0,0004.52,0002.82,0002.48
